TimePST,TemperatureF,Dew PointF,Humidity,Sea Level PressureIn,VisibilityMPH,Wind Direction,Wind SpeedMPH,Gust SpeedMPH,PrecipitationIn,Events,Conditions,WindDirDegrees,DateUTC
12:56 AM,41.0,35.1,79,30.20,10.0,Calm,Calm,-,N/A,,Clear,0,2013-02-22 08:56:00
1:56 AM,41.0,35.1,79,30.21,10.0,Calm,Calm,-,N/A,,Clear,0,2013-02-22 09:56:00
2:56 AM,39.9,35.1,83,30.20,10.0,Calm,Calm,-,N/A,,Clear,0,2013-02-22 10:56:00
3:56 AM,37.0,34.0,89,30.22,10.0,Calm,Calm,-,N/A,,Clear,0,2013-02-22 11:56:00
4:56 AM,36.0,32.0,86,30.22,10.0,Calm,Calm,-,N/A,,Clear,0,2013-02-22 12:56:00
5:56 AM,35.1,32.0,89,30.24,10.0,Calm,Calm,-,N/A,,Clear,0,2013-02-22 13:56:00
6:56 AM,34.0,30.9,89,30.25,10.0,Calm,Calm,-,N/A,,Clear,0,2013-02-22 14:56:00
7:56 AM,37.0,32.0,82,30.27,10.0,Calm,Calm,-,N/A,,Clear,0,2013-02-22 15:56:00
8:56 AM,41.0,34.0,76,30.28,10.0,Calm,Calm,-,N/A,,Clear,0,2013-02-22 16:56:00
9:56 AM,46.9,34.0,61,30.26,10.0,Calm,Calm,-,N/A,,Clear,0,2013-02-22 17:56:00
11:56 AM,55.9,33.1,42,30.25,10.0,Calm,Calm,-,N/A,,Clear,0,2013-02-22 19:56:00
12:56 PM,61.0,34.0,36,30.22,10.0,ENE,4.6,-,N/A,,Clear,60,2013-02-22 20:56:00
1:56 PM,63.0,35.1,35,30.19,10.0,NNW,12.7,18.4,N/A,,Clear,340,2013-02-22 21:56:00
2:56 PM,62.1,35.1,37,30.19,10.0,NW,8.1,-,N/A,,Clear,310,2013-02-22 22:56:00
3:56 PM,61.0,36.0,39,30.18,10.0,NW,4.6,-,N/A,,Clear,310,2013-02-22 23:56:00
4:56 PM,55.9,37.9,51,30.18,10.0,NNW,10.4,-,N/A,,Clear,340,2013-02-23 00:56:00
5:56 PM,52.0,39.0,61,30.21,10.0,NNE,11.5,17.3,N/A,,Clear,20,2013-02-23 01:56:00
6:56 PM,50.0,37.9,63,30.21,10.0,Variable,5.8,-,N/A,,Mostly Cloudy,0,2013-02-23 02:56:00
7:56 PM,48.9,37.0,64,30.21,10.0,Calm,Calm,-,N/A,,Mostly Cloudy,0,2013-02-23 03:56:00
8:56 PM,48.9,37.9,66,30.25,10.0,Variable,5.8,-,N/A,,Overcast,0,2013-02-23 04:56:00
9:17 PM,48.2,37.4,66,30.26,10.0,North,11.5,24.2,N/A,,Overcast,350,2013-02-23 05:17:00
9:56 PM,46.9,39.9,77,30.25,10.0,North,10.4,-,0.00,Rain,Light Rain,350,2013-02-23 05:56:00
10:33 PM,46.4,39.2,76,30.25,10.0,North,5.8,-,0.00,,Overcast,350,2013-02-23 06:33:00
10:56 PM,46.9,39.0,74,30.23,10.0,North,4.6,-,0.00,,Overcast,360,2013-02-23 06:56:00
11:31 PM,46.4,39.2,76,30.22,10.0,Calm,Calm,-,N/A,,Overcast,0,2013-02-23 07:31:00
11:47 PM,46.4,39.2,76,30.23,10.0,Calm,Calm,-,N/A,,Overcast,0,2013-02-23 07:47:00
11:56 PM,46.9,39.9,77,30.22,10.0,Calm,Calm,-,N/A,,Overcast,0,2013-02-23 07:56:00